Location: Thompson
(55.7500°N, 97.8670°W)
Time: 11:44:31
(UTC-05:00)

Daily predictions for brighter satellites

Satellite Brightness Start Highest point End
(mag) Time Altitude Azimuth Time Altitude Azimuth Time Altitude Azimuth
Cosmos 1455 Rocket 3.0 21:15:38 10° S 21:19:56 71° E 21:24:19 10° NNE
Cosmos 2369 4.1 21:20:08 10° S 21:25:27 43° ESE 21:30:49 10° NE
Cosmos 1633 4.2 21:26:28 10° SW 21:29:56 40° WNW 21:33:25 10° N
BREEZE-M DEB (TANK) 4.2 21:27:23 10° WSW 21:30:24 37° S 21:38:13 10° ESE
NOSS 2-1 (E) 3.8 21:28:01 10° SSW 21:32:03 54° SE 21:37:01 10° NE
Cosmos 1980 Rocket 3.7 21:29:03 10° SE 21:32:27 16° E 21:35:52 10° ENE
Cosmos 2369 Rocket 4.4 21:27:45 10° W 21:32:34 28° NNW 21:37:24 10° NNE
Cosmos 1939 Rocket 3.0 21:29:32 10° SSE 21:33:41 82° ENE 21:37:53 10° NNW
Lacrosse 5 2.4 21:29:27 10° WNW 21:34:22 52° SSW 21:39:17 10° SE
ARGOS 3.8 21:31:15 10° SE 21:36:12 39° ENE 21:41:12 10° N
Cosmos 2084 4.2 21:34:04 10° WNW 21:37:52 44° SW 21:41:50 10° SSE
Resurs 01 Rocket 4.4 21:34:56 10° SW 21:38:01 18° W 21:41:07 10° NW
ATLAS CENTAUR R/B 2.3 21:34:11 10° WSW 21:39:12 65° NW 21:43:59 10° NE
Meteor 1-21 4.5 21:38:09 10° N 21:43:50 58° ENE 21:49:31 10° SSE
Cosmos 1934 Rocket 4.4 21:39:32 10° SSW 21:45:41 72° WNW 21:51:59 10° N
SPOT 5 2.9 21:42:09 10° SSE 21:47:08 69° ENE 21:51:53 10° NNW
Cosmos 1666 4.4 21:47:17 12° ESE 21:49:03 16° E 21:51:26 10° NE
USA 186 4.2 21:46:48 10° SSW 21:49:10 21° W 21:51:26 10° NW
USA 215 3.4 21:44:53 10° ESE 21:51:21 75° SSW 21:57:56 10° WNW
Cosmos 2227 Rocket 3.8 21:46:33 10° NW 21:51:34 33° WSW 21:56:32 10° S
Cosmos 2263 Rocket 3.2 21:48:14 10° NNW 21:53:23 36° NE 21:58:15 11° ESE
RESURS DK-1 2.6 21:50:11 10° NW 21:54:19 68° WSW 21:58:17 11° SSE
MetOp-B 4.2 21:49:47 10° SSE 21:55:06 72° ENE 22:00:28 10° NNW
Cosmos 1802 Rocket 4.4 21:50:06 10° SSE 21:56:10 47° E 22:02:16 10° NNE
Cosmos 1606 Rocket 4.4 21:54:42 11° SSE 21:58:28 32° E 22:02:25 10° NNE
Cosmos 1500 3.2 21:55:48 10° S 21:59:30 61° E 22:03:15 10° NNE
Cosmos 1943 Rocket 4.1 21:54:53 10° W 21:59:58 33° NW 22:05:07 10° NNE
Cosmos 2208 Rocket 4.2 21:57:37 10° SSW 22:03:00 84° WNW 22:08:29 10° NNE
Cosmos 2322 Rocket 4.0 22:03:23 11° ESE 22:04:08 12° E 22:06:04 10° ENE
EP 2 4.4 22:02:34 10° SW 22:05:18 75° SE 22:08:41 10° NE
Cosmos 1656 3.8 22:00:50 10° S 22:06:12 49° ESE 22:11:32 10° NE
PSLV R/B 3.1 22:03:53 16° SSE 22:06:14 68° ENE 22:09:18 10° N
Cosmos 1340 2.6 22:02:42 10° NNW 22:06:32 79° ENE 22:09:50 13° SSE
Cosmos 2297 Rocket 3.7 22:02:13 10° NW 22:07:15 34° WSW 22:12:16 10° S
Cosmos 2227 4.3 22:04:41 10° NW 22:10:30 87° WSW 22:15:23 15° SSE
Cosmos 405 Rocket 4.0 22:07:44 10° N 22:11:01 26° ENE 22:12:58 17° ESE
SL-08 RB Rocket 4.1 22:07:25 15° SE 22:11:04 53° ENE 22:15:35 10° N
Landsat 7 4.5 22:07:46 16° SE 22:11:12 41° ENE 22:15:41 10° N
CZ-4 SHROUD 3.1 22:11:19 18° SSE 22:13:28 74° ENE 22:16:35 10° NNW
Cosmos 2016 Rocket 4.2 22:08:28 10° SSE 22:14:22 51° E 22:20:22 10° NNE
Cosmos 1937 Rocket 4.1 22:13:31 10° NW 22:18:38 54° WSW 22:23:47 10° S
Genesis I 4.3 22:15:21 10° NW 22:19:07 37° NNE 22:22:09 14° E
Envisat 3.9 22:16:14 10° S 22:21:09 49° W 22:26:06 10° NNW
ASTEX 1 3.5 22:16:09 10° N 22:21:09 63° E 22:25:57 11° S
Cosmos 1726 Rocket 3.9 22:19:24 16° SSE 22:22:39 44° E 22:26:52 10° NNE
H-2A R/B 2.4 22:19:51 18° SE 22:23:13 46° ENE 22:27:57 10° N
Terra 2.5 22:23:37 19° ESE 22:26:34 41° ENE 22:31:02 10° N
Cosmos 2173 Rocket 4.0 22:20:49 10° S 22:27:11 78° E 22:33:31 10° NNE
YAOGAN 6 2.9 22:24:04 14° S 22:27:12 67° WSW 22:30:56 10° NNW
Cosmos 1825 Rocket 4.0 22:23:47 10° NNW 22:28:12 62° W 22:32:30 10° S
Cosmos 1743 2.7 22:28:29 10° S 22:32:24 78° E 22:36:21 10° NNE
Cosmos 2098 Rocket 4.1 22:26:48 11° SSE 22:33:10 53° E 22:38:34 10° NNE
Tsikada Rocket 4.1 22:28:53 10° N 22:35:21 77° ENE 22:40:26 17° SSE
Cosmos 2278 Rocket 4.2 22:31:32 10° NNW 22:35:50 21° NNE 22:40:06 10° ENE
Cosmos 1953 Rocket 3.9 22:32:46 10° NNW 22:37:11 67° W 22:40:55 14° S
NOSS 7 (E) 4.4 22:34:06 10° SW 22:37:27 89° SE 22:41:14 10° NE
Cosmos 2100 Rocket 4.0 22:31:22 10° S 22:37:40 86° W 22:43:56 10° N
Cosmos 1975 4.2 22:33:53 10° SW 22:37:48 41° WNW 22:41:44 10° N
Cosmos 2061 Rocket 4.0 22:32:22 10° S 22:38:42 89° E 22:45:00 10° NNE
CZ-4B R/B 3.7 22:35:48 10° NNE 22:40:21 42° E 22:43:00 22° SSE
SPOT 1/Viking Rocket 3.7 22:37:53 16° S 22:42:10 74° WSW 22:47:25 10° NNW
Spot 4 4.4 22:41:49 23° ESE 22:44:22 44° ENE 22:48:55 10° N
Cosmos 1842 3.4 22:42:33 10° NNW 22:46:29 72° W 22:48:56 22° S
NOSS 7 (H) 4.4 22:43:56 10° SW 22:47:14 74° SE 22:51:10 10° NE
BREEZE-M DEB (TANK) 4.2 22:40:20 10° SW 22:47:16 24° S 22:48:16 22° SSE
BREEZE-M DEB (TANK) 4.2 22:46:00 10° SW 22:47:27 14° SSW 22:47:27 14° SSW
H-2A R/B 3.6 22:44:21 10° SSW 22:48:02 31° W 22:51:45 10° NNW
deb Chang Zheng 4 3.8 22:45:03 10° NNE 22:49:32 73° WNW 22:53:58 10° SSW
GP-B 3.9 22:48:13 10° NNE 22:52:20 35° E 22:53:48 28° ESE
Cosmos 1697 Rocket 2.6 22:47:43 10° SSW 22:53:22 76° ESE 22:59:02 10° NE
Cosmos 2278 4.5 22:50:36 10° SW 22:56:12 56° NW 23:01:51 10° NNE
Cosmos 1758 Rocket 4.2 22:52:00 10° NNW 22:56:16 51° W 22:59:30 16° SSW
SL-16 R/B 3.2 22:57:20 25° ESE 22:58:24 27° ESE 23:03:03 10° NE
Cosmos 1125 Rocket 3.6 22:55:21 10° NNW 23:00:33 71° WSW 23:03:32 26° SSE
Okean 3 Rocket 4.5 22:56:32 10° N 23:00:37 35° ENE 23:02:07 27° ESE
Cosmos 1707 3.5 22:57:09 10° N 23:00:53 39° ENE 23:01:58 32° ESE
SAR-Lupe-2 4.3 23:03:50 33° E 23:04:40 38° ENE 23:08:02 10° N
Cosmos 1844 Rocket 3.9 23:01:37 10° NNW 23:06:41 34° NE 23:10:31 16° E
Cosmos 2228 3.0 23:05:54 33° SSE 23:07:41 64° E 23:11:57 10° NNE
IGS 5A 3.4 23:06:33 36° SSE 23:08:10 75° ENE 23:12:21 10° NNW
Cosmos 1763 Rocket 3.4 23:04:14 15° SSW 23:08:27 66° ESE 23:13:31 10° NNE
Meteor 2-5 Rocket 3.9 23:02:33 10° NNW 23:08:32 69° ENE 23:11:37 29° SSE
Cosmos 1725 Rocket 3.9 23:07:24 16° S 23:12:30 84° E 23:18:49 10° NNE
SL-24 R/B - RUBIN 2 4.4 23:08:48 10° SW 23:15:01 85° SE 23:21:46 10° NE
Cosmos 1980 Rocket 2.1 23:09:51 10° SSW 23:15:30 72° ESE 23:21:13 10° NE
ARGOS 3.9 23:12:23 16° SSW 23:16:25 47° W 23:21:39 10° NNW
Lacrosse 5 3.9 23:13:20 10° W 23:16:27 17° SW 23:18:37 13° SSW
Cosmos 2360 Rocket 3.8 23:17:04 17° E 23:17:04 17° E 23:20:13 10° ENE
Meteor 1-15 Rocket 4.3 23:12:45 20° S 23:17:01 78° E 23:22:54 10° NNE
ALOS 2 4.4 23:17:04 17° E 23:18:43 21° NE 23:22:00 10° N
ATLAS CENTAUR R/B 3.6 23:14:38 10° WNW 23:19:03 31° NNW 23:23:14 10° NE
Cosmos 468 Rocket 4.4 23:16:01 10° SW 23:21:06 61° WNW 23:26:14 10° NNE
Cosmos 1666 3.0 23:22:16 25° SSW 23:24:18 63° WNW 23:28:06 10° N
Cosmos 2058 Rocket 3.3 23:21:52 20° SSW 23:24:59 70° WNW 23:29:32 10° N
DELTA 2 DEB (DPAF) 4.5 23:23:21 30° S 23:25:24 60° WSW 23:29:53 10° NNW
DMSP B5D2-2 4.3 23:20:19 10° NNE 23:25:31 53° E 23:27:26 35° SSE
Cosmos 1437 4.3 23:22:54 10° N 23:25:44 25° ENE 23:25:50 25° ENE
Cosmos 841 Rocket 3.4 23:25:05 17° SSW 23:29:14 83° ESE 23:34:29 10° NNE
Cosmos 1814 Rocket 4.5 23:24:08 10° SW 23:29:25 62° WNW 23:34:42 10° NNE
USA 215 4.1 23:32:14 25° S 23:35:03 36° SW 23:40:59 10° WNW
Meteor 2-17 Rocket 4.3 23:32:05 27° S 23:35:37 81° E 23:41:42 10° NNE
Meteor 1-24 Rocket 3.9 23:29:45 10° NNW 23:35:49 68° ENE 23:38:22 36° SE
Cosmos 1378 3.8 23:33:51 10° N 23:37:29 41° ENE 23:37:49 40° E
Cosmos 2263 Rocket 2.3 23:32:11 10° NW 23:37:44 68° WSW 23:39:56 37° S
Cosmos 2233 Rocket 3.9 23:36:30 27° S 23:40:08 84° E 23:46:26 10° NNE
Cosmos 921 Rocket 4.2 23:37:44 10° NNW 23:41:52 34° NE 23:43:14 28° E
Cosmos 1441 Rocket 3.2 23:38:00 10° N 23:42:00 69° ENE 23:42:32 59° ESE
CZ-4C R/B 4.5 23:41:00 28° SSW 23:42:53 44° W 23:47:07 10° NNW
CARTOSAT-1 4.3 23:44:47 32° SSW 23:46:20 46° W 23:50:33 10° NNW
Cosmos 2322 Rocket 2.3 23:45:09 38° S 23:46:59 55° ESE 23:52:29 10° NE
Cosmos 405 Rocket 3.7 23:43:40 10° NNW 23:47:14 38° W 23:48:12 32° SW
CZ-4 R/B 4.1 23:46:13 10° NNE 23:50:54 67° WNW 23:53:37 25° SW
Cosmos 540 Rocket 3.5 23:51:21 45° SSE 23:52:36 59° ESE 23:57:41 10° NNE
Cosmos 2360 4.2 23:48:34 15° SSW 23:53:25 90° S 23:59:13 10° NE
Cosmos 332 Rocket 3.8 23:53:20 49° SSE 23:54:22 62° ESE 23:59:14 10° NNE
